Location: Abraham Lincoln Continuation High School
(33.9711°N, 117.3662°W)
Time: 04:30:06
(UTC+00:00)

Cosmos 1707 - Pass Details

Date: 21 September 2020
Orbit: 515 x 530 km, 82.5° (Epoch: 25 October)

Event Time Altitude Azimuth Distance (km) Brightness Sun altitude
Rises 02:49:35 0° 359° (N) 2,639 6.4 -13.5°
Reaches altitude 10° 02:51:47 10° 5° (N) 1,747 5.4 -14.0°
Maximum altitude 02:55:31 50° 82° (E) 663 2.8 -14.7°
Enters shadow 02:58:37 14° 155° (SSE) 1,504 4.7 -15.4°
